Location: Corcelles
(46.1547°N, 4.7234°E)
Time: 20:51:39
(UTC+00:00)

COSMOS 2406 - Pass Details

Date: 14 July 2020
Orbit: 844 x 862 km, 71.0° (Epoch: 14 August)

Event Time Altitude Azimuth Distance (km) Brightness Sun altitude
Exits shadow 00:49:36 31° 154° (SSE) 1,468 4.0 -20.7°
Maximum altitude 00:51:42 43° 107° (ESE) 1,194 3.9 -20.6°
Drops below altitude 10° 00:57:06 10° 38° (NE) 2,509 6.7 -20.4°
Sets 00:59:40 0° 32° (NNE) 3,448 7.8 -20.2°
